User: anonymous   Login
Location: Terra Rouge Observatory
(46.0000°N, 62.7500°W)
Time: 04:27:39
(UTC-04:00)
Language:

NOSS 3-1 (A) - Orbit

View from above orbital plane
View from above orbital plane
View from above satellite
View from above satellite

Ground track
Ground track

The orbit data is extracted from the following two-line orbital elements,

1 26905U 01040A   15058.80218013 0.00000060  00000-0  84437-4 0    08
2 26905  63.4260  17.9069 0294000 357.6931   2.3069 13.40713262    05
Epoch (UTC): 27 February 2015 19:15:08
Eccentricity: 0.0294000
inclination: 63.4260°
perigee height: 886 km
apogee height: 1326 km
right ascension of ascending node: 17.9069°
argument of perigee: 357.6931°
revolutions per day: 13.40713262
mean anomaly at epoch: 2.3069°
orbit number at epoch: 0

The dashed part of the orbit path shows where the satellite is in the earth's shadow,  

DLR